Regional Weather Roundup
Issued by NWS Newport/Morehead, NC

Current Version | Previous Version | Graphics & Text | Print | Product List | Glossary On
Versions: 1 2 3 4 5 6 7 8 9 10 11 12 13 14 15 16 17 18 19 20 21 22 23 24 25 26 27 28 29 30 31 32 33 34 35 36 37 38 39 40 41 42 43 44 45 46 47 48 49 50
000 ASUS42 KMHX 242025 RWRMHX WEATHER ROUNDUP FOR EASTERN NORTH CAROLINA NATIONAL WEATHER SERVICE NEWPORT/MOREHEAD CITY NC 300 PM EST TUE JAN 24 2017 NOTE: "FAIR" INDICATES FEW OR NO CLOUDS BELOW 12,000 FEET WITH NO SIGNIFICANT WEATHER AND/OR OBSTRUCTIONS TO VISIBILITY NCZ015>017-031-032-045>047-102-103-242100- NORTH COAST CITY SKY/WX TMP DP RH WIND PRES REMARKS EDENTON PTSUNNY 56 37 49 NW14G22 29.58S ELIZABETH CITY PTSUNNY 52 35 52 W18G26 29.56R KITTY HAWK NOT AVBL MANTEO CLOUDY 50 37 60 NW13G22 29.56R $$ NCZ045>047-081-094-103-104-242100- CENTRAL COAST CITY SKY/WX TMP DP RH WIND PRES REMARKS FRISCO SUNNY 53 38 56 NW12G23 29.57R $$ NCZ095-097-098-100-101-242100- SOUTHERN COAST CITY SKY/WX TMP DP RH WIND PRES REMARKS BEAUFORT CLOUDY 56 41 57 W14 29.60R CEDAR ISLAND NOT AVBL JACKSONVILLE MOSUNNY 59 42 53 NW13 29.61R PINEY ISLAND PTCLDY N/A N/A N/A NW16G23 29.59R WILMINGTON MOSUNNY 63 42 46 W20G31 29.62S $$ NCZ011>013-027>030-043-044-078>080-089-090>093-098-242100- COASTAL PLAIN CITY SKY/WX TMP DP RH WIND PRES REMARKS AHOSKIE N/A 54 37 52 W3 29.58S CLINTON MOSUNNY 61 42 49 NW13G21 29.64R ELIZABETHTOWN SUNNY 63 42 45 NW12G20 29.65R GOLDSBORO SUNNY 62 38 41 NW14G20 29.59S GREENVILLE PTSUNNY 59 36 41 NW10G16 29.63S HAVELOCK PTSUNNY 57 39 51 NW16 29.61R KENANSVILLE MOSUNNY 61 41 48 W12G18 29.62S KINSTON MOSUNNY 61 37 41 NW12 29.61F NEW BERN MOSUNNY 57 39 51 NW12G23 29.61R RICHLANDS PTSUNNY 59 43 55 NW6G16 29.62S ROCKY MOUNT MOSUNNY 60 38 43 NW15G24 29.60S WASHINGTON SUNNY 58 37 45 NW7G17 N/A WHITEVILLE PTSUNNY 64 41 43 W8 29.65R $$ AMZ130-135-150-152-154-156-158-170-250-252-270-ANZ085-086-088-633-658-670-242100- MARINE OBSERVATIONS STATION/POSITION TIME TEMP WIND PRES WAVE SWELL AIR SEA DIR/SP/G HT/PER HT/PER (UTC) (F) (DEG/KT/KT) (MB) (FT/S) (FT/S) CHESAPEAKE LIGHT NOT AVBL 64 E VA BEACH 1950 47 54 300/ 31/ 37 997.4 10/12 7/12 DUCK 2000 49 46 300/ 18/ 23 1000.0 2 E DUCK 2000 47 N/A 6/12 3/12 OREGON INLET 2000 49 49 300/ 16/ 27 1000.5 13E OREGON INLT NOT AVBL HATTERAS CG 2000 51 55 310/ 20/ 24 1001.0 DIAMOND BUOY 1950 52 74 310/ 23/ 29 1000.6 9/11 5/11 CAPE LOOKOUT 2000 54 290/ 16/ 21 1002.0 BEAUFORT LAB 2000 55 52 310/ 10/ 16 1001.5 30 SE NEW RVR IN 2008 57 65 320/ 17/ 21 1002.9 30 SE NEW RVR IN 1943 65 N/A 6/13 3/13 27 SE WRIGHTSVLE 2008 60 67 300/ 16/ 21 1002.9 5 SE WRIGHTSVLE 2008 59 57 290/ 16/ 25 1002.7 225 S CAPE HAT 1950 65 71 300/ 27/ 33 1001.6 15/10 41 SE CHARLESTON 1950 61 69 260/ 17/ 21 1005.3 5/ 6 2/11 $$

USA.gov is the U.S. government's official web portal to all federal, state and local government web resources and services.